Location: ???????
(55.3754°N, 39.3545°E)
Time: 22:05:57
(UTC+00:00)

Cosmos 1733 Rocket - Pass Details

Date: 14 April 2026
Orbit: 597 x 619 km, 82.5° (Epoch: 13 May)

Event Time Altitude Azimuth Distance (km) Brightness Sun altitude
Exits shadow 17:43:49 - 161° (SSE) 2,036 5.2 -10.7°
Reaches altitude 10° 17:44:00 10° 160° (SSE) 1,966 5.1 -10.7°
Maximum altitude 17:48:03 39° 92° (E) 933 3.6 -11.2°
Drops below altitude 10° 17:52:08 10° 24° (NNE) 1,992 5.8 -11.7°
Sets 17:54:29 0° 17° (NNE) 2,906 6.8 -11.9°
